Weather in Zaozerye

Russia / Novgorod Oblast     58°25′18″N   33°10′04″E
temp.,
°C
wind,
m/s
gust,
m/s
humid.,
%
clouds,
%
prec.,
mm/h
press.,
hPa
HPBL,
m
23 october, sat
sat2300:00+5sw7157621 0.0 9921235
03:00+4wsw51295100 1.4 9931142
06:00+5sw511849 1.4 993808
09:00+3sw411845 1.4 995596
12:00+5wsw5980100 0.0 998922
15:00+4wsw4891100 0.1 1000704
18:00+4wsw3796100 0.2 1002657
21:00+3wsw2596100 0.3 1004541
24 october, sun
sun2400:00+3wnw3796100 0.2 1006723
03:00+2nw4994100 0.5 1009666
06:00+1nw4109396 0.3 1012759
09:00+1nw4108780 0.4 1015827
12:00+2nw4879100 0.1 1019955
15:00+2nw4876100 0.2 10211183
18:000nw38809 0.1 1023383
21:00−1wnw26895 0.1 1025173
25 october, mon
mon2500:00−1w238665 0.0 102687
03:00−1sw2684100 0.0 1026216
06:000ssw31081100 0.0 1025417
09:00+1ssw51380100 0.0 1022706
12:00+2sw61590100 1.4 1021627
15:00+4sw61585100 1.5 1019791
18:00+4wsw51387100 0.0 1019894
21:00+4sw51389100 0.0 1018668
26 october, tue
tue2600:00+2sw5149219 0.0 1019505
03:00+2sw51393100 0.0 1018412
06:00+1sw41391100 0.0 1017397
09:00+1sw41289100 0.0 1016413
12:00+4sw4118198 0.0 1016472
15:00+5sw41080100 0.0 1014551
18:00+3sw41285100 0.0 1014445
21:00+3sw41288100 0.0 1013431
27 october, wed
wed2700:00+3sw41290100 0.0 1012410
03:00+3sw41290100 0.0 1010393
06:00+3sw51295100 1.1 1008504
09:00+4wsw41397100 1.9 1008718
12:00+6w51082100 0.2 1008976
15:00+6w5118792 0.2 1009844
18:00+6w51184100 0.1 10091103
21:00+6w61384100 0.3 10101446